Regional Weather Roundup
Issued by NWS Albany, NY

Home | Current Version | Previous Version | Text Only | Print | Product List | Glossary On
Versions: 1 2 3 4 5 6 7 8 9 10 11 12 13 14 15 16 17 18 19 20 21 22 23 24 25 26 27 28 29 30 31 32 33 34 35 36 37 38 39 40 41 42 43 44 45 46 47 48 49 50
000
ASUS41 KALY 201310
RWRALY

NEW YORK STATE HOURLY WEATHER ROUNDUP
NATIONAL WEATHER SERVICE ALBANY NY
900 AM EDT MON OCT 20 2014

NOTE: "FAIR" INDICATES FEW OR NO CLOUDS BELOW 12,000 FEET WITH NO
SIGNIFICANT WEATHER AND/OR NO OBSTRUCTIONS TO VISIBILITY.

NYZ032-033-038>043-046>054-057>066-NYZ062>081-201400-
EAST


CITY           SKY/WX    TMP DP  RH WIND       PRES   REMARKS
ALBANY         PTSUNNY   39  32  76 SE6       30.05F WCI  35
GLENS FALLS    PTSUNNY   36  32  85 S6        30.04R WCI  31
POUGHKEEPSIE   SUNNY     43  31  62 S6        30.10R
NEWBURGH       PTSUNNY   39  32  75 W7        30.10R WCI  34
MONTGOMERY     SUNNY     39  31  72 SW5       30.09R
WHITE PLAINS   MOSUNNY   42  32  67 CALM      30.10R
ISLIP          PTSUNNY   44  33  65 W7        30.11R
NEW YORK CITY  PTSUNNY   48  30  49 SW9       30.12R
CENTRAL PARK   PTSUNNY   47  29  49 VRB6      30.15R
$$

NYZ005>009-017-018-044>046-055-056-201400-
CENTRAL


CITY           SKY/WX    TMP DP  RH WIND       PRES   REMARKS
FULTON         CLOUDY    43  35  73 S7        29.97S
SYRACUSE       PTSUNNY   45  35  68 S5        29.98S
ROME           PTSUNNY   38  34  85 E6        30.02S WCI  33
ELMIRA         PTSUNNY   35  32  88 CALM      30.02R
BINGHAMTON     MOSUNNY   38  30  73 S7        30.00R WCI  33
MONTICELLO     MOSUNNY   34  30  86 CALM      30.07R
$$

NYZ026>034-041>043-201400-
NORTH


CITY           SKY/WX    TMP DP  RH WIND       PRES   REMARKS
WATERTOWN      CLOUDY    44  33  65 MISG      29.95F
FORT DRUM      NOT AVBL
MASSENA        PTSUNNY   35  32  88 CALM      29.99S
SARANAC LAKE   CLOUDY    32  29  88 SW6       29.93S WCI  26
PLATTSBURGH    MOSUNNY   36  31  82 CALM      30.00R
$$

NYZ001>004-010>016-019>021-201400-
WEST


CITY           SKY/WX    TMP DP  RH WIND       PRES   REMARKS
NIAGARA FALLS  PTSUNNY   49  40  71 S12       29.91S
BUFFALO        PTSUNNY   46  35  65 S8        29.93S
DUNKIRK        PTSUNNY   47  37  68 S15G24    29.92F
JAMESTOWN      CLOUDY    39  36  87 S5        29.94F
WELLSVILLE     CLOUDY    42  32  67 SW12      29.97S
ROCHESTER      LGT RAIN  44  35  70 SW8       29.95S
PENN YAN       PTSUNNY   43  33  68 S14       29.98R
$$

             KEY
       WCI = WIND CHILL INDEX
       VSB = VISIBILITY
       HX  = HEAT INDEX
$$


USA.gov is the U.S. government's official web portal to all federal, state and local government web resources and services.